Overview Statistics Trail Chart Weather Telemetry Raw packets
 

This is the latest recevied weather packets stored in our database for station/object K6CEG. If no packets are shown the sender has not sent any weather packets the latest 10 day(s).

<< 65 66 67 68 69 70 71 >>
Time Temp. Humidity Pressure Rain* Wind** Luminosity Snow
1788219858 30.56° C 33% 1014 hPa 0 mm - 32 W/m² -
1788219553 30° C 34% 1014.3 hPa 0 mm - 32 W/m² -
1788219248 30° C 36% 1014.1 hPa 0 mm - 33 W/m² -
1788218943 30° C 35% 1013.8 hPa 0 mm - 34 W/m² -
1788218639 30.56° C 38% 1014.5 hPa 0 mm - 34 W/m² -
1788218335 30.56° C 37% 1014.1 hPa 0 mm - 35 W/m² -
1788218032 30° C 38% 1014 hPa 0 mm - 35 W/m² -
1788217727 30° C 40% 1014.2 hPa 0 mm - 35 W/m² -
1788217422 30° C 39% 1014.3 hPa 0 mm - 36 W/m² -
1788217121 30° C 38% 1014.2 hPa 0 mm - 38 W/m² -
1788216816 30° C 40% 1014.4 hPa 0 mm - 39 W/m² -
1788216512 30° C 41% 1014.2 hPa 0 mm - 41 W/m² -
1788216206 30° C 41% 1014.4 hPa 0 mm - 368 W/m² -
1788215901 30° C 41% 1014.4 hPa 0 mm - 446 W/m² -
1788215598 30° C 41% 1014.6 hPa 0 mm - 382 W/m² -
1788215295 30.56° C 41% 1014.5 hPa 0 mm - 41 W/m² -
1788214990 30.56° C 41% 1014.7 hPa 0 mm - 42 W/m² -
1788214685 30.56° C 40% 1014.6 hPa 0 mm - 43 W/m² -
1788214380 30.56° C 41% 1014.6 hPa 0 mm - 44 W/m² -
1788214080 30° C 41% 1014.7 hPa 0 mm - 47 W/m² -
1788213776 30.56° C 41% 1014.7 hPa 0 mm - 192 W/m² -
1788213476 30.56° C 41% 1014.4 hPa 0 mm - 343 W/m² -
1788213172 31.11° C 41% 1014.6 hPa 0 mm - 118 W/m² -
1788212869 31.11° C 40% 1014.8 hPa 0 mm - 563 W/m² -
1788212565 31.11° C 41% 1014.5 hPa 0 mm - 106 W/m² -

* Rain latest hour (hover to see other rain measurements)
** Current wind speed in m/s (hover to see current wind gust speed)